www.pogodaiklimat.ru

Погода и климат >> Архив погоды >> Американское Самоа >> Фалеоло


ПОГОДА Фалеоло

  • Прогноз погоды Фалеоло
  • Монитор погоды Фалеоло

АРХИВ ПОГОДЫ Фалеоло

Время (UTC), дата Ветер
(напр.,м/с)
 
Видим.   Явления Облачность Т
(С)
Тd
(С)
f
(%)
Тe
(С)
Тes
(С)
Комфортность P
(гПа)
Po
(гПа)
Тmin
(С)
Tmax
(С)
R
(мм)
R24
(мм)
S
(см)
18 15.09 В 2 20 км мгла 4/3 660 м
[Cu med, cong Ci fib]
+25.0 +22.9 88 +33 +33 очень
душно
1013.4 1012.8
00 16.09 СВ 6 20 км осадки на расстоянии {морось} 9/5 570 м
[Cb cap Ac As]
+28.0 +27.1 95 +44 +46 опасность
перегрева
1013.9 1013.3 +23.7 0.0
06 16.09 В 4 20 км осадки на расстоянии 10/6 600 м
[Cu Sc Ac As]
+25.4 +24.2 93 +35 +35 очень
душно
1015.1 1014.5
12 16.09 В 3 20 км 3/3 750 м
[Cu hum]
+24.2 +21.9 87 +31 +31 очень
душно
1015.1 1014.5 +32.2
18 16.09 В 3 50 км 1/1 840 м
[Cu hum]
+24.3 +22.0 87 +31 +32 очень
душно
1014.5 1013.9
00 17.09 СВ 6 20 км мгла 3/3 900 м
[Cu hum]
+30.4 +25.0 73 +44 +50 опасность
перегрева
1013.7 1013.1 +22.8
06 17.09 ЮВ 2 20 км 5/5 660 м
[Cu med, cong]
+26.0 +24.0 89 +36 +36 очень
душно
1014.7 1014.1
12 17.09 ЮВ 2 20 км 3/3 900 м
[Cu hum]
+23.3 +22.1 93 +32 +32 очень
душно
1014.9 1014.3 +30.8
18 17.09 В 2 50 км 1/1 900 м
[Cu hum]
+23.8 +22.6 93 +31 +32 очень
душно
1014.9 1014.3
00 18.09 СВ 6 20 км осадки на расстоянии 8/6 700 м
[Cu med, cong Cs]
+30.7 +24.4 69 +43 +46 опасность
перегрева
1013.1 1012.5 +22.8
06 18.09 В 4 20 км мгла 4/4 700 м
[Cu hum]
+26.3 +22.4 79 +34 +34 очень
душно
1012.9 1012.3
12 18.09 нст 2 20 км 5/5 720 м
[Cu Sc]
+25.7 +23.6 88 +35 +35 очень
душно
1013.4 1012.8 +31.3
18 18.09 нст 2 20 км 8/8 800 м
[Cu Sc]
+25.7 +23.2 86 +34 +35 очень
душно
1014.4 1013.8
00 19.09 нст 2 20 км осадки на расстоянии 9/6 600 м
[Cu Sc Ac As]
+28.9 +24.0 75 +40 +44 очень
душно
1012.3 1011.7 +24.0
06 19.09 В 5 20 км мгла 4/4 660 м
[Cu med, cong]
+25.8 +22.7 83 +34 +34 очень
душно
1013.2 1012.6
12 19.09 В 4 20 км 1/1 900 м
[Cu hum]
+23.7 +20.2 81 +29 +29 душно 1013.3 1012.7 +32.5
18 19.09 ЮВ 4 20 км мгла 6/1 900 м
[Cu hum Cc]
+25.0 +21.3 80 +32 +32 очень
душно
1013.3 1012.7
00 20.09 СВ 3 20 км осадки на расстоянии 9/8 600 м
[Cu Sc Ac As]
+29.5 +23.7 71 +40 +43 очень
душно
1012.4 1011.8 +21.8
06 20.09 ЮВ 4 20 км осадки на расстоянии 9/9 600 м
[Cu Sc]
+26.0 +23.1 84 +35 +35 очень
душно
1012.4 1011.8
12 20.09 нст 2 20 км 4/4 800 м
[Cu med, cong]
+24.2 +20.5 80 +30 +30 очень
душно
1012.6 1012.0 +30.7
18 20.09 нст 2 20 км мгла 8/1 840 м
[Cu hum Ac trans Cc]
+22.8 +20.9 89 +30 +30 очень
душно
1013.2 1012.6
00 21.09 нст 2 20 км осадки на расстоянии 9/6 600 м
[Cu Sc Ac As]
+28.1 +22.6 72 +37 +41 очень
душно
1012.5 1011.9 +22.4
06 21.09 В 5 20 км осадки на расстоянии {морось} 9/9 800 м
[Cu Sc]
+26.1 +21.7 77 +34 +34 очень
душно
1012.8 1012.2 0.1
12 21.09 СВ 3 20 км 4/4 660 м
[Cu med, cong]
+23.9 +21.2 85 +30 +30 очень
душно
1012.2 1011.6 +30.1
18 21.09 ЮВ 2 20 км мгла 3/3 720 м
[Cu hum]
+23.2 +20.5 85 +31 +31 очень
душно
1014.1 1013.5
00 22.09 В 4 20 км слаб. морось 8/6 660 м
[Cu Sc Ac trans]
+26.9 +23.4 81 +36 +41 очень
душно
1013.7 1013.1 +22.3
12 22.09 ЮВ 3 20 км осадки на расстоянии {морось} 5/5 600 м
[Cu med, cong Cs]
+24.9 +22.6 87 +33 +33 очень
душно
1014.8 1014.2 +28.1 0.0

 

Местоположение метеостанции Фалеоло (Американское Самоа): широта -13.81 долгота -172.00 высота над уровнем моря 5 м.

В архиве по умолчанию представлена погода Фалеоло за последнюю неделю. Архивные данные за месяц целиком и за предыдущие месяцы, начиная с января 2011 года, Вы можете получить, выбрав интересующий диапазон дат из раскрывающегося списка и нажав кнопку "Ввод!".


*Определитесь, кто Вы:
робот инопланетянин человек

Внимание! Время в таблицах - всемирное. Для получения местного времени необходимо прибавить поправку, которая равна 12 ч.

Смотрите также архив погоды в соседних городах и на ближайших метеорологических станциях:

Погода на Фалеоло восток (Самоа) (2 км)
Погода в Аэропорту Фалеоло (Самоа) (3 км)
Погода на Острове Маноно (Самоа) (13 км)
Погода в Аэропорту Маота (Самоа) (29 км)
Погода Апиа (Американское Самоа) (32 км)
Погода на Станции Togitogiga (Самоа) (35 км)
Погода на Станции Le Mafa (Самоа) (46 км)
Погода в Луфилуфи (Самоа) (48 км)
Погода на Станции Le Piu Tai (Самоа) (57 км)
Погода на Станции Mount Talu (Самоа) (82 км)

Пояснения к столбцам:

Ветер - указаны скорость ветра в м/с - средняя за 10 мин, порывы в срок и между сроками (в фигурных скобках) и направление, откуда дует ветер: С - северный, СВ - северо-восточный, В - восточный, ЮВ - юго-восточный, Ю - южный, ЮЗ - юго-западный, З - западный, СЗ - северо-западный.
Видимость - горизонтальная дальность видимости в метрах или километрах. При видимости от 1 до 10 км при отсутствии осадков обычно наблюдается дымка, при ухудшении видимости до 1 км и менее - туман. В сухую погоду видимость может ухудшаться дымом, пылью или мглою.
Явления - указаны атмосферные явления, наблюдавшиеся в срок или в последний час перед сроком; фигурными скобками обозначены явления, наблюдавшиеся между сроками (за 1-3 часа до срока); квадратными скобками обозначены град или гололедные отложения с указанием их диаметра в мм.
Облачность - указаны через наклонную черту общая и нижняя облачность в баллах и высота нижней границы облаков в метрах; квадратными скобками обозначены формы облаков: Ci - перистые, Cs - перисто-слоистые, Cc - перисто-кучевые, Ac - высококучевые, As - высокослоистые, Sc - слоисто-кучевые, Ns - слоисто-дождевые, Cu - кучевые, Cb - кучево-дождевые. Подробнее классификацию облаков см. в Атласе облаков (PDF).
T - Температура воздуха - температура, измеренная на высоте 2 м над землей.
Td - Температура точки росы - температура, при понижении до которой содержащийся в воздухе водяной пар достигнет насыщения.
f - Относительная влажность воздуха - влажноcть воздуха, измеренная на высоте 2 м над землей.
Te - Эффективная температура - температура, которую ощущает одетый по сезону человек в тени. Характеристика душности погоды. При расчете учитывается влияние влажности воздуха и скорости ветра на теплоощущения человека.
Tes - Эффективная температура на солнце - температура, которую ощущает человек, с поправкой на солнечный нагрев. Характеристика знойности погоды. Зависит от высоты солнца над горизонтом, облачности и скорости ветра. Ночью, в пасмурную погоду, а также при ветре 12 м/с и более поправка равна нулю.
P - Атмосферное давление - приведенное к уровню моря атмосферное давление.
Po - Атмосферное давление - измеренное на уровне метеостанции атмосферное давление.
Tmin - Минимальная температура - минимум температуры воздуха на высоте 2 м над землей.
Tmax - Максимальная температура - максимум температуры воздуха на высоте 2 м над землей.
R - Количество осадков - Количество выпавших осадков за период времени, мм. При наведении курсора мыши на число - период времени, за который выпало указанное количество осадков.
R24 - Количество осадков - Количество выпавших осадков за 24 часа, мм.
S - Снежный покров - Высота снежного покрова, см. При наведении курсора мыши на число - состояние снежного покрова и степень покрытия местности в баллах.